AAL956 KMIA-MWCR

Flight info

Callsign AAL956
Flight time 1h 5m
Altitude 37000
Route MAYNR DCT FUNDI UM335 ALVEK UM328 UCL/N0445F380 DCT LACET DCT ALONA DCT MOBIX DCT SASER
Aircraft A319/M-SDE3FGHIRWY/LB1

Departure

Time 2026-05-07 16:45
Airport Miami International Airport (KMIA)

Arrival

Time 2026-05-07 17:50
Airport Owen Roberts International Airport (MWCR)
Time Latitude Longitude Altitude Speed Heading
2026-05-07 16:28 25.79680 -80.28135 17 ft 0 kts 55°
2026-05-07 16:38 25.79669 -80.28151 15 ft 4 kts 51°
2026-05-07 16:39 25.79651 -80.28172 16 ft 4 kts 27°
2026-05-07 16:39 25.79636 -80.28178 16 ft 3 kts 298°
2026-05-07 16:39 25.79635 -80.28175 16 ft 0 kts 287°
2026-05-07 16:41 25.79637 -80.28182 18 ft 2 kts 286°
2026-05-07 16:41 25.79648 -80.28216 15 ft 7 kts 294°
2026-05-07 16:41 25.79674 -80.28287 15 ft 12 kts 278°
2026-05-07 16:42 25.79671 -80.28400 15 ft 17 kts 267°
2026-05-07 16:42 25.79657 -80.28555 16 ft 22 kts 258°
2026-05-07 16:42 25.79641 -80.28741 15 ft 26 kts 266°
2026-05-07 16:42 25.79713 -80.28816 15 ft 17 kts 358°
2026-05-07 16:43 25.79851 -80.28822 15 ft 22 kts 357°
2026-05-07 16:43 25.80003 -80.28849 16 ft 20 kts 308°
2026-05-07 16:43 25.80008 -80.29009 16 ft 23 kts 268°
2026-05-07 16:43 25.80001 -80.29202 16 ft 27 kts 268°
2026-05-07 16:44 25.79990 -80.29429 15 ft 31 kts 267°
2026-05-07 16:44 25.79980 -80.29672 14 ft 31 kts 267°
2026-05-07 16:44 25.80078 -80.29731 14 ft 23 kts 58°
2026-05-07 16:44 25.80098 -80.29479 14 ft 61 kts 87°
2026-05-07 16:45 25.80129 -80.28747 17 ft 127 kts 88°
2026-05-07 16:45 25.80174 -80.27583 148 ft 162 kts 88°
2026-05-07 16:45 25.80218 -80.26355 808 ft 159 kts 90°
2026-05-07 16:45 25.79857 -80.25199 1322 ft 163 kts 128°
2026-05-07 16:46 25.79016 -80.24332 1849 ft 172 kts 139°
2026-05-07 16:46 25.78107 -80.23387 2339 ft 186 kts 136°
2026-05-07 16:46 25.77085 -80.22361 2680 ft 211 kts 140°
2026-05-07 16:46 25.75902 -80.21238 3126 ft 236 kts 140°
2026-05-07 16:47 25.74575 -80.20010 3661 ft 260 kts 144°
2026-05-07 16:47 25.72884 -80.19224 4389 ft 270 kts 173°
2026-05-07 16:47 25.70996 -80.19118 5280 ft 274 kts 179°
2026-05-07 16:47 25.69076 -80.19058 6156 ft 278 kts 178°
2026-05-07 16:48 25.67124 -80.19082 6960 ft 283 kts 186°
2026-05-07 16:48 25.65178 -80.19352 7747 ft 287 kts 187°
2026-05-07 16:48 25.63185 -80.19636 8555 ft 291 kts 188°
2026-05-07 16:48 25.61232 -80.20285 9333 ft 297 kts 203°
2026-05-07 16:49 25.59399 -80.21390 10096 ft 302 kts 208°
2026-05-07 16:49 25.57514 -80.22586 10401 ft 324 kts 208°
2026-05-07 16:49 25.55454 -80.23744 10802 ft 338 kts 205°
2026-05-07 16:49 25.53306 -80.24856 11423 ft 344 kts 204°
2026-05-07 16:50 25.51114 -80.25951 12108 ft 347 kts 204°
2026-05-07 16:50 25.48902 -80.27043 12811 ft 351 kts 204°
2026-05-07 16:50 25.46657 -80.28150 13497 ft 355 kts 204°
2026-05-07 16:50 25.44393 -80.29272 14157 ft 358 kts 204°
2026-05-07 16:51 25.42110 -80.30413 14750 ft 362 kts 205°
2026-05-07 16:51 25.39831 -80.31559 15343 ft 365 kts 205°
2026-05-07 16:51 25.37508 -80.32734 15961 ft 368 kts 205°
2026-05-07 16:51 25.35174 -80.33917 16574 ft 372 kts 206°
2026-05-07 16:52 25.32806 -80.35115 17180 ft 375 kts 206°
2026-05-07 16:52 25.30418 -80.36320 17750 ft 380 kts 206°
2026-05-07 16:52 25.28001 -80.37536 18305 ft 384 kts 206°
2026-05-07 16:52 25.25557 -80.38762 18817 ft 387 kts 206°
2026-05-07 16:53 25.23097 -80.39997 19354 ft 390 kts 206°
2026-05-07 16:53 25.20623 -80.41238 19905 ft 391 kts 206°
2026-05-07 16:53 25.18138 -80.42487 20462 ft 393 kts 207°
2026-05-07 16:53 25.15635 -80.43746 21013 ft 395 kts 207°
2026-05-07 16:54 25.13131 -80.45005 21560 ft 397 kts 207°
2026-05-07 16:54 25.10608 -80.46274 22105 ft 399 kts 207°
2026-05-07 16:54 25.08071 -80.47545 22652 ft 402 kts 207°
2026-05-07 16:54 25.05515 -80.48828 23200 ft 404 kts 207°
2026-05-07 16:55 25.02951 -80.50113 23736 ft 406 kts 208°
2026-05-07 16:55 25.00388 -80.51397 24144 ft 409 kts 207°
2026-05-07 16:55 24.97782 -80.52701 24540 ft 412 kts 207°
2026-05-07 16:55 24.95166 -80.54011 24938 ft 414 kts 207°
2026-05-07 16:56 24.92558 -80.55315 25354 ft 416 kts 207°
2026-05-07 16:56 24.89903 -80.56642 25755 ft 418 kts 207°
2026-05-07 16:56 24.84578 -80.59299 26541 ft 423 kts 207°
2026-05-07 16:57 24.81893 -80.60635 26925 ft 426 kts 207°
2026-05-07 16:57 24.79186 -80.61979 27294 ft 428 kts 207°
2026-05-07 16:57 24.76464 -80.63331 27661 ft 430 kts 207°
2026-05-07 16:57 24.73722 -80.64696 28028 ft 433 kts 207°
2026-05-07 16:58 24.70966 -80.66070 28387 ft 435 kts 207°
2026-05-07 16:58 24.68206 -80.67446 28732 ft 438 kts 207°
2026-05-07 16:58 24.65422 -80.68833 29087 ft 440 kts 207°
2026-05-07 16:58 24.62648 -80.70216 29439 ft 443 kts 207°
2026-05-07 16:59 24.59835 -80.71618 29790 ft 445 kts 207°
2026-05-07 16:59 24.57005 -80.73024 30136 ft 448 kts 207°
2026-05-07 16:59 24.54159 -80.74435 30423 ft 450 kts 207°
2026-05-07 16:59 24.51292 -80.75855 30715 ft 452 kts 207°
2026-05-07 17:00 24.48420 -80.77279 31003 ft 454 kts 207°
2026-05-07 17:00 24.46516 -80.78225 31187 ft 455 kts 207°
2026-05-07 17:00 24.43616 -80.79662 31469 ft 457 kts 207°
2026-05-07 17:00 24.40710 -80.81100 31741 ft 459 kts 207°
2026-05-07 17:01 24.37798 -80.82541 32118 ft 459 kts 208°
2026-05-07 17:01 24.34894 -80.83980 32522 ft 457 kts 208°
2026-05-07 17:01 24.31992 -80.85418 32930 ft 456 kts 208°
2026-05-07 17:01 24.29101 -80.86847 33338 ft 455 kts 208°
2026-05-07 17:02 24.26222 -80.88268 33751 ft 454 kts 208°
2026-05-07 17:02 24.23354 -80.89681 34147 ft 453 kts 208°
2026-05-07 17:02 24.20478 -80.91095 34481 ft 453 kts 208°
2026-05-07 17:02 24.17635 -80.92495 34832 ft 451 kts 208°
2026-05-07 17:03 24.14742 -80.93920 35171 ft 450 kts 208°
2026-05-07 17:03 24.11899 -80.95322 35482 ft 450 kts 208°
2026-05-07 17:03 24.09040 -80.96733 35760 ft 450 kts 208°
2026-05-07 17:03 24.06212 -80.98130 36040 ft 450 kts 208°
2026-05-07 17:04 24.03346 -80.99521 36332 ft 450 kts 205°
2026-05-07 17:04 24.00321 -81.00545 36613 ft 455 kts 195°
2026-05-07 17:04 23.97197 -81.01004 36883 ft 458 kts 185°
2026-05-07 17:04 23.93982 -81.00954 37051 ft 461 kts 180°
2026-05-07 17:05 23.87645 -81.00670 37080 ft 456 kts 180°
2026-05-07 17:05 23.81332 -81.00399 37079 ft 455 kts 181°
2026-05-07 17:06 23.74986 -81.00130 37079 ft 455 kts 180°
2026-05-07 17:06 23.68639 -80.99868 37079 ft 455 kts 180°
2026-05-07 17:07 23.62321 -80.99604 37079 ft 455 kts 180°
2026-05-07 17:07 23.55990 -80.99338 37073 ft 455 kts 180°
2026-05-07 17:08 23.49673 -80.99068 37078 ft 455 kts 180°
2026-05-07 17:08 23.43349 -80.98801 37072 ft 455 kts 180°
2026-05-07 17:09 23.37024 -80.98531 37077 ft 455 kts 180°
2026-05-07 17:09 23.30671 -80.98266 37075 ft 455 kts 180°
2026-05-07 17:10 23.24340 -80.98002 37077 ft 455 kts 180°
2026-05-07 17:10 23.18010 -80.97736 37074 ft 455 kts 180°
2026-05-07 17:11 23.11688 -80.97473 37068 ft 455 kts 180°
2026-05-07 17:11 23.05360 -80.97218 37065 ft 454 kts 182°
2026-05-07 17:12 22.99200 -80.98214 37067 ft 447 kts 201°
2026-05-07 17:12 22.93376 -81.00549 37062 ft 446 kts 203°
2026-05-07 17:13 22.87548 -81.02877 37059 ft 446 kts 203°
2026-05-07 17:13 22.81715 -81.05199 37053 ft 447 kts 203°
2026-05-07 17:14 22.75885 -81.07522 37051 ft 447 kts 203°
2026-05-07 17:14 22.70084 -81.09844 37049 ft 447 kts 203°
2026-05-07 17:15 22.64248 -81.12178 37050 ft 447 kts 203°
2026-05-07 17:15 22.58405 -81.14517 37049 ft 447 kts 203°
2026-05-07 17:16 22.52572 -81.16846 37045 ft 447 kts 203°
2026-05-07 17:16 22.46721 -81.19168 37050 ft 447 kts 202°
2026-05-07 17:17 22.40879 -81.21487 37051 ft 447 kts 203°
2026-05-07 17:17 22.35075 -81.23795 37053 ft 447 kts 203°
2026-05-07 17:18 22.29232 -81.26116 37057 ft 447 kts 203°
2026-05-07 17:18 22.23378 -81.28444 37056 ft 447 kts 203°
2026-05-07 17:19 22.17575 -81.30743 37065 ft 447 kts 203°
2026-05-07 17:19 22.11738 -81.33054 37069 ft 447 kts 203°
2026-05-07 17:20 22.05904 -81.35366 37072 ft 446 kts 203°
2026-05-07 17:20 22.00072 -81.37674 37071 ft 446 kts 203°
2026-05-07 17:21 21.94234 -81.39981 37072 ft 446 kts 203°
2026-05-07 17:21 21.88404 -81.42280 37065 ft 446 kts 202°
2026-05-07 17:22 21.82564 -81.44581 37064 ft 446 kts 202°
2026-05-07 17:22 21.76770 -81.46872 37063 ft 446 kts 203°
2026-05-07 17:23 21.70930 -81.49176 37058 ft 447 kts 202°
2026-05-07 17:23 21.65089 -81.51468 37060 ft 447 kts 202°
2026-05-07 17:24 21.59158 -81.53523 37065 ft 450 kts 193°
2026-05-07 17:24 21.52986 -81.54698 37059 ft 450 kts 192°
2026-05-07 17:25 21.46838 -81.55859 37059 ft 451 kts 192°
2026-05-07 17:25 21.40662 -81.57021 37063 ft 451 kts 192°
2026-05-07 17:26 21.34467 -81.58186 37065 ft 451 kts 192°
2026-05-07 17:26 21.28280 -81.59350 37066 ft 451 kts 192°
2026-05-07 17:27 21.22087 -81.60521 37068 ft 451 kts 192°
2026-05-07 17:27 21.15907 -81.61686 37064 ft 451 kts 192°
2026-05-07 17:28 21.09752 -81.62843 37067 ft 452 kts 192°
2026-05-07 17:28 21.03558 -81.64011 36887 ft 452 kts 192°
2026-05-07 17:29 21.00464 -81.64592 36613 ft 450 kts 192°
2026-05-07 17:29 20.97389 -81.65167 36111 ft 447 kts 192°
2026-05-07 17:29 20.94329 -81.65736 35578 ft 445 kts 192°
2026-05-07 17:29 20.91276 -81.66311 35051 ft 444 kts 192°
2026-05-07 17:30 20.88240 -81.66886 34522 ft 443 kts 192°
2026-05-07 17:30 20.85210 -81.67459 33983 ft 442 kts 192°
2026-05-07 17:30 20.82187 -81.68027 33404 ft 440 kts 192°
2026-05-07 17:30 20.79187 -81.68585 32898 ft 437 kts 192°
2026-05-07 17:31 20.76197 -81.69143 32364 ft 435 kts 191°
2026-05-07 17:31 20.73262 -81.69691 31865 ft 433 kts 191°
2026-05-07 17:31 20.70303 -81.70243 31347 ft 431 kts 191°
2026-05-07 17:31 20.67358 -81.70793 30852 ft 429 kts 191°
2026-05-07 17:32 20.64420 -81.71343 30356 ft 427 kts 191°
2026-05-07 17:32 20.61506 -81.71887 29831 ft 425 kts 191°
2026-05-07 17:32 20.58604 -81.72430 29352 ft 421 kts 191°
2026-05-07 17:32 20.55721 -81.72968 28882 ft 418 kts 191°
2026-05-07 17:33 20.52874 -81.73502 28424 ft 415 kts 190°
2026-05-07 17:33 20.50032 -81.74032 27982 ft 412 kts 190°
2026-05-07 17:33 20.47213 -81.74558 27515 ft 410 kts 190°
2026-05-07 17:33 20.44405 -81.75081 27064 ft 409 kts 189°
2026-05-07 17:34 20.41608 -81.75600 26615 ft 407 kts 189°
2026-05-07 17:34 20.38851 -81.76112 26142 ft 406 kts 189°
2026-05-07 17:34 20.36060 -81.76631 25661 ft 405 kts 189°
2026-05-07 17:34 20.33299 -81.77146 25180 ft 404 kts 188°
2026-05-07 17:35 20.30512 -81.77665 24685 ft 404 kts 188°
2026-05-07 17:35 20.27769 -81.78177 24182 ft 404 kts 188°
2026-05-07 17:35 20.24978 -81.78697 23669 ft 404 kts 188°
2026-05-07 17:35 20.22208 -81.79212 23092 ft 404 kts 187°
2026-05-07 17:36 20.19462 -81.79721 22593 ft 401 kts 187°
2026-05-07 17:36 20.16741 -81.80223 22095 ft 399 kts 187°
2026-05-07 17:36 20.13985 -81.80733 21597 ft 397 kts 187°
2026-05-07 17:36 20.11279 -81.81235 21109 ft 395 kts 187°
2026-05-07 17:37 20.08581 -81.81733 20631 ft 393 kts 187°
2026-05-07 17:37 20.05890 -81.82229 20148 ft 392 kts 187°
2026-05-07 17:37 20.03212 -81.82723 19679 ft 389 kts 187°
2026-05-07 17:37 20.00528 -81.82890 19215 ft 383 kts 173°
2026-05-07 17:38 19.97933 -81.82399 18768 ft 376 kts 159°
2026-05-07 17:38 19.95507 -81.81415 18316 ft 372 kts 154°
2026-05-07 17:38 19.93117 -81.80388 17934 ft 367 kts 154°
2026-05-07 17:38 19.90758 -81.79376 17451 ft 365 kts 155°
2026-05-07 17:39 19.88418 -81.78371 16993 ft 362 kts 155°
2026-05-07 17:39 19.86094 -81.77372 16620 ft 358 kts 155°
2026-05-07 17:39 19.83787 -81.76384 16189 ft 355 kts 155°
2026-05-07 17:39 19.81494 -81.75404 15755 ft 354 kts 155°
2026-05-07 17:40 19.79249 -81.74441 15317 ft 352 kts 156°
2026-05-07 17:40 19.76993 -81.73474 14978 ft 347 kts 156°
2026-05-07 17:40 19.74750 -81.72514 14580 ft 345 kts 157°
2026-05-07 17:40 19.72523 -81.71562 14165 ft 344 kts 156°
2026-05-07 17:41 19.70314 -81.70620 13725 ft 343 kts 158°
2026-05-07 17:41 19.68116 -81.69680 13392 ft 337 kts 157°
2026-05-07 17:41 19.65936 -81.68748 12901 ft 336 kts 157°
2026-05-07 17:41 19.63774 -81.67825 12469 ft 334 kts 158°
2026-05-07 17:42 19.61633 -81.66910 12059 ft 331 kts 158°
2026-05-07 17:42 19.59499 -81.65998 11615 ft 330 kts 158°
2026-05-07 17:42 19.57377 -81.65092 11199 ft 328 kts 158°
2026-05-07 17:42 19.55269 -81.64191 10786 ft 326 kts 158°
2026-05-07 17:43 19.53174 -81.63296 10442 ft 321 kts 158°
2026-05-07 17:43 19.51106 -81.62414 9947 ft 320 kts 158°
2026-05-07 17:43 19.49050 -81.61537 9484 ft 316 kts 158°
2026-05-07 17:43 19.47058 -81.60688 9066 ft 309 kts 158°
2026-05-07 17:44 19.45086 -81.59851 8644 ft 302 kts 158°
2026-05-07 17:44 19.43154 -81.59030 8224 ft 295 kts 157°
2026-05-07 17:44 19.41270 -81.58229 7805 ft 289 kts 157°
2026-05-07 17:44 19.39420 -81.57442 7384 ft 283 kts 157°
2026-05-07 17:45 19.37612 -81.56672 6972 ft 277 kts 155°
2026-05-07 17:45 19.35835 -81.55915 6553 ft 272 kts 156°
2026-05-07 17:45 19.34060 -81.55259 6116 ft 268 kts 161°
2026-05-07 17:45 19.32275 -81.54745 5687 ft 263 kts 163°
2026-05-07 17:46 19.30520 -81.54291 5251 ft 256 kts 164°
2026-05-07 17:46 19.28828 -81.53866 4840 ft 250 kts 163°
2026-05-07 17:46 19.27149 -81.53442 4405 ft 244 kts 162°
2026-05-07 17:46 19.25689 -81.52642 4001 ft 235 kts 130°
2026-05-07 17:47 19.25055 -81.51104 3606 ft 231 kts 92°
2026-05-07 17:47 19.25302 -81.49438 3254 ft 230 kts 75°
2026-05-07 17:47 19.25819 -81.47861 2847 ft 220 kts 71°
2026-05-07 17:47 19.26384 -81.46385 2447 ft 213 kts 68°
2026-05-07 17:48 19.26998 -81.45013 2021 ft 206 kts 66°
2026-05-07 17:48 19.27495 -81.43636 1677 ft 195 kts 76°
2026-05-07 17:48 19.27789 -81.42284 1405 ft 179 kts 77°
2026-05-07 17:48 19.28049 -81.41046 1084 ft 166 kts 78°
2026-05-07 17:49 19.28303 -81.39904 833 ft 151 kts 79°
2026-05-07 17:49 19.28551 -81.38857 549 ft 144 kts 78°
2026-05-07 17:49 19.28790 -81.37858 296 ft 136 kts 78°
2026-05-07 17:49 19.29013 -81.36905 61 ft 132 kts 77°
2026-05-07 17:50 19.29216 -81.36043 16 ft 103 kts 76°
2026-05-07 17:50 19.29349 -81.35481 15 ft 54 kts 76°
2026-05-07 17:50 19.29406 -81.35244 16 ft 23 kts 76°
2026-05-07 17:50 19.29447 -81.35073 18 ft 24 kts 75°
2026-05-07 17:51 19.29487 -81.34918 21 ft 19 kts 75°
2026-05-07 17:51 19.29556 -81.34924 18 ft 15 kts 293°
2026-05-07 17:51 19.29538 -81.35050 16 ft 19 kts 255°
2026-05-07 17:51 19.29506 -81.35189 16 ft 20 kts 256°
2026-05-07 17:52 19.29468 -81.35344 16 ft 25 kts 256°
2026-05-07 17:52 19.29426 -81.35523 17 ft 19 kts 259°
2026-05-07 17:52 19.29469 -81.35605 17 ft 13 kts 315°
2026-05-07 17:52 19.29468 -81.35665 16 ft 7 kts 262°
2026-05-07 17:53 19.29503 -81.35687 16 ft 7 kts 349°
2026-05-07 17:53 19.29517 -81.35690 16 ft 0 kts 348°